CES8667 ZGHA-ZSAM

Flight info

Callsign CES8667
Flight time N/A
Altitude 35100
Route PAT7X PATVO W227 GUTGO W530 LEPMI W46 PULES W19 RUNEK W19 PLT DCT TEBON TEBON8X
Aircraft B738/M-SDE2E3FGHIRWXY/LB1

Departure

Time 2026-04-23 17:36
Airport Changsha Huanghua International Airport (ZGHA)

Arrival

Time N/A
Airport Xiamen Gaoqi International Airport (ZSAM)
Time Latitude Longitude Altitude Speed Heading
2026-04-23 17:15 28.20120 113.21637 213 ft 0 kts 266°
2026-04-23 17:29 28.20119 113.21630 213 ft 3 kts 266°
2026-04-23 17:29 28.20115 113.21604 213 ft 1 kts 240°
2026-04-23 17:29 28.20056 113.21676 215 ft 16 kts 107°
2026-04-23 17:30 28.19948 113.21725 217 ft 19 kts 177°
2026-04-23 17:30 28.19683 113.21741 218 ft 21 kts 176°
2026-04-23 17:30 28.19522 113.21751 214 ft 24 kts 177°
2026-04-23 17:31 28.19341 113.21762 213 ft 25 kts 176°
2026-04-23 17:31 28.19147 113.21775 214 ft 31 kts 176°
2026-04-23 17:31 28.19005 113.21785 215 ft 19 kts 176°
2026-04-23 17:31 28.18846 113.21796 221 ft 26 kts 176°
2026-04-23 17:32 28.18690 113.21803 216 ft 20 kts 176°
2026-04-23 17:32 28.18526 113.21813 214 ft 27 kts 177°
2026-04-23 17:32 28.18321 113.21825 214 ft 32 kts 178°
2026-04-23 17:32 28.18147 113.21836 213 ft 16 kts 176°
2026-04-23 17:33 28.18011 113.21845 213 ft 23 kts 177°
2026-04-23 17:33 28.17846 113.21855 213 ft 22 kts 177°
2026-04-23 17:33 28.17743 113.21928 214 ft 15 kts 96°
2026-04-23 17:33 28.17759 113.22065 214 ft 21 kts 88°
2026-04-23 17:34 28.17761 113.22197 213 ft 15 kts 106°
2026-04-23 17:34 28.17659 113.22249 213 ft 20 kts 176°
2026-04-23 17:34 28.17498 113.22386 216 ft 14 kts 77°
2026-04-23 17:35 28.17595 113.22446 216 ft 20 kts 359°
2026-04-23 17:35 28.18227 113.22409 221 ft 113 kts 357°
2026-04-23 17:35 28.19190 113.22345 682 ft 137 kts 356°
2026-04-23 17:36 28.20166 113.22282 1568 ft 151 kts 356°
2026-04-23 17:36 28.21256 113.22218 2457 ft 171 kts 356°
2026-04-23 17:36 28.22567 113.22088 2989 ft 201 kts 354°
2026-04-23 17:36 28.23979 113.21919 3727 ft 207 kts 354°
2026-04-23 17:37 28.24142 113.21900 3821 ft 208 kts 354°
2026-04-23 17:37 28.25060 113.21789 4366 ft 209 kts 354°
2026-04-23 17:38 28.26109 113.21662 5105 ft 208 kts 354°
2026-04-23 17:38 28.26426 113.21624 5315 ft 208 kts 354°
2026-04-23 17:38 28.27877 113.21447 6221 ft 213 kts 353°
2026-04-23 17:38 28.29365 113.21309 7035 ft 218 kts 355°
2026-04-23 17:39 28.30896 113.21217 7836 ft 223 kts 355°
2026-04-23 17:39 28.32458 113.21127 8657 ft 228 kts 355°
2026-04-23 17:39 28.34053 113.21032 9487 ft 233 kts 354°
2026-04-23 17:39 28.35687 113.20953 10274 ft 238 kts
2026-04-23 17:40 28.36124 113.21002 10467 ft 241 kts
2026-04-23 17:40 28.36752 113.21206 10760 ft 246 kts 19°
2026-04-23 17:40 28.37902 113.22084 11378 ft 256 kts 43°
2026-04-23 17:41 28.37972 113.22167 11425 ft 257 kts 45°
2026-04-23 17:41 28.38751 113.23919 12092 ft 271 kts 77°
2026-04-23 17:41 28.38909 113.25607 12644 ft 278 kts 84°
2026-04-23 17:42 28.39066 113.30078 14031 ft 292 kts 85°
2026-04-23 17:42 28.39147 113.32416 14706 ft 296 kts 85°
2026-04-23 17:42 28.39243 113.34767 15391 ft 301 kts 85°
2026-04-23 17:43 28.39350 113.37150 16057 ft 306 kts 84°
2026-04-23 17:43 28.39464 113.39573 16722 ft 310 kts 85°
2026-04-23 17:43 28.39372 113.42029 17355 ft 317 kts 107°
2026-04-23 17:43 28.38372 113.44236 18001 ft 316 kts 133°
2026-04-23 17:44 28.36808 113.45942 18592 ft 315 kts 150°
2026-04-23 17:44 28.34887 113.47244 18769 ft 329 kts 163°
2026-04-23 17:44 28.30255 113.48104 19075 ft 357 kts 185°
2026-04-23 17:45 28.27711 113.48204 19212 ft 377 kts 185°
2026-04-23 17:45 28.22207 113.48439 19449 ft 415 kts 183°
2026-04-23 17:45 28.19283 113.48603 19640 ft 428 kts 183°
2026-04-23 17:46 28.13490 113.50585 20528 ft 457 kts 148°
2026-04-23 17:46 28.11182 113.53086 21035 ft 468 kts 129°
2026-04-23 17:46 28.09603 113.56328 21537 ft 474 kts 115°
2026-04-23 17:47 28.08296 113.59770 21996 ft 478 kts 114°
2026-04-23 17:47 28.06980 113.63237 22413 ft 483 kts 115°
2026-04-23 17:47 28.03658 113.69691 23241 ft 482 kts 137°
2026-04-23 17:48 28.01076 113.72043 23686 ft 475 kts 154°
2026-04-23 17:48 27.98151 113.73713 24092 ft 472 kts 160°
2026-04-23 17:48 27.95168 113.75272 24473 ft 474 kts 161°
2026-04-23 17:48 27.92170 113.76812 24837 ft 476 kts 161°
2026-04-23 17:49 27.89160 113.78362 25186 ft 478 kts 161°
2026-04-23 17:49 27.86144 113.79932 25561 ft 479 kts 161°
2026-04-23 17:49 27.83122 113.81523 25942 ft 481 kts 161°
2026-04-23 17:49 27.80091 113.83130 26254 ft 482 kts 162°
2026-04-23 17:50 27.77060 113.84745 26575 ft 484 kts 162°
2026-04-23 17:50 27.71686 113.87616 27158 ft 487 kts 162°
2026-04-23 17:50 27.68626 113.89249 27492 ft 488 kts 162°
2026-04-23 17:51 27.65554 113.90888 27806 ft 490 kts 163°
2026-04-23 17:51 27.62475 113.92528 28114 ft 491 kts 163°
2026-04-23 17:51 27.56293 113.95816 28685 ft 493 kts 163°
2026-04-23 17:52 27.53192 113.97464 29005 ft 494 kts 163°
2026-04-23 17:52 27.47019 114.00747 29924 ft 489 kts 164°
2026-04-23 17:52 27.43957 114.02373 30376 ft 487 kts 165°
2026-04-23 17:53 27.37854 114.05607 30985 ft 486 kts 165°
2026-04-23 17:53 27.34812 114.07216 31328 ft 485 kts 165°
2026-04-23 17:53 27.31772 114.08824 31694 ft 483 kts 166°
2026-04-23 17:54 27.28738 114.10429 32066 ft 482 kts 166°
2026-04-23 17:54 27.25720 114.12024 32460 ft 480 kts 167°
2026-04-23 17:54 27.19721 114.15194 33213 ft 475 kts 167°
2026-04-23 17:55 27.13761 114.18335 33868 ft 473 kts 168°
2026-04-23 17:55 27.10824 114.19883 34240 ft 470 kts 168°
2026-04-23 17:55 27.07865 114.21443 34555 ft 468 kts 168°
2026-04-23 17:56 27.04945 114.22978 34780 ft 469 kts 168°
2026-04-23 17:56 26.99050 114.26071 35141 ft 471 kts 168°
2026-04-23 17:56 26.96074 114.27628 35141 ft 474 kts 168°
2026-04-23 17:57 26.90097 114.30761 35145 ft 475 kts 168°
2026-04-23 17:58 26.81156 114.35456 35135 ft 473 kts 168°
2026-04-23 17:58 26.75212 114.38568 35135 ft 472 kts 168°
2026-04-23 17:59 26.69276 114.41670 35128 ft 472 kts 168°
2026-04-23 17:59 26.63342 114.44767 35134 ft 472 kts 168°
2026-04-23 18:00 26.57413 114.47858 35140 ft 471 kts 168°
2026-04-23 18:00 26.51479 114.50948 35132 ft 471 kts 168°
2026-04-23 18:01 26.46716 114.53426 35122 ft 471 kts 168°
2026-04-23 18:01 26.40782 114.56510 35123 ft 472 kts 168°
2026-04-23 18:02 26.34840 114.59595 35125 ft 473 kts 168°
2026-04-23 18:02 26.28882 114.62685 35131 ft 473 kts 167°
2026-04-23 18:03 26.22909 114.65779 35125 ft 475 kts 167°
2026-04-23 18:03 26.16928 114.68874 35118 ft 475 kts 167°
2026-04-23 18:04 26.10942 114.71969 35115 ft 475 kts 167°
2026-04-23 18:04 26.04948 114.75064 35111 ft 477 kts 167°
2026-04-23 18:05 25.98938 114.78164 35115 ft 477 kts 167°
2026-04-23 18:05 25.92922 114.81263 35115 ft 478 kts 167°
2026-04-23 18:06 25.89908 114.82815 35106 ft 479 kts 167°